Temp
14 15 14 14 14 13 13 13 12 12 12 12 12 12 12 12 12 12 12 12 12 12 10 9 9 9 10 9 9 9 9 9 8 8 7 6 5 5 3 5 4 4 4
13 13 13 13 13 14 13 13 13 12 11 11 11 11 11 11 11 11 10 11 11 11 9 8 8 8 9 9 9 9 9 8 8 6 6 5 4 3 2 2 3 3 3
12 12 11 12 12 13 13 13 12 11 11 11 11 10 10 9 9 10 9 9 9 8 8 7 8 8 8 8 8 8 8 8 7 6 5 3 3 2 2 1 1 2 2
10 10 10 10 11 12 12 12 11 10 10 9 9 10 9 9 8 8 8 8 7 6 6 7 7 7 7 7 7 7 6 7 7 6 5 3 2 2 1 2 2 2 2
9 9 9 10 10 11 11 10 9 9 9 9 9 9 8 8 8 7 7 7 6 5 5 5 5 5 5 5 5 6 6 6 5 5 4 4 2 2 2 2 1 1 1
9 9 9 9 10 10 9 9 9 9 9 8 8 7 7 7 7 6 6 6 5 5 5 4 4 5 5 5 5 5 5 5 5 4 4 4 3 3 2 2 1 1 1
9 9 9 9 9 9 8 8 8 8 8 7 7 7 7 7 7 6 5 5 4 4 4 4 4 4 5 5 5 4 4 4 3 3 3 3 3 2 2 1 1 1 1
9 8 8 8 8 8 8 7 7 7 7 6 6 6 6 6 6 6 4 4 4 3 3 3 3 3 3 3 3 2 2 2 2 3 2 2 2 1 2 1 1 1 1
8 8 8 8 8 7 7 7 6 6 6 6 5 5 5 5 5 4 3 2 1 1 1 1 1 2 2 2 2 1 1 2 2 2 2 2 1 1 1 1 1 1 1
8 8 7 7 7 6 6 6 5 5 5 5 4 4 4 3 1 2 1 -0 0 0 0 0 1 0 0 1 1 1 1 2 1 1 1 2 1 0 0 1 1 1 1
7 7 7 6 6 6 6 5 4 4 4 3 3 3 2 1 -0 -0 -0 -1 -1 -1 -1 -0 -1 -1 -0 1 1 1 0 1 1 0 1 1 0 0 0 0 0 0 -0
6 6 6 5 5 5 5 4 4 3 3 3 2 1 1 0 -1 -1 -2 -2 -2 -2 -2 -1 -1 -0 -1 -0 -0 0 0 -0 -0 -0 1 -0 -0 -0 -0 -0 -0 -0 -1
6 6 5 5 5 5 5 4 3 2 2 2 1 0 -1 -1 -1 -1 -2 -2 -2 -2 -1 -1 -2 -1 -1 -1 -0 -1 -1 -0 -0 0 -0 -1 -0 -1 -1 -0 -1 -1 -1
5 5 5 5 5 4 4 3 2 2 2 1 1 -0 -0 -1 -1 -2 -2 -2 -2 -1 -1 -2 -2 -2 -1 -1 -2 -1 -1 -1 -1 -1 -1 -1 -0 -1 -1 -1 -1 -1 -1
5 4 4 4 4 3 3 2 2 2 1 1 0 -0 -1 -1 -1 -2 -2 -3 -2 -2 -2 -2 -2 -1 -1 -2 -2 -2 -1 -1 -1 -2 -1 -1 -1 -1 -1 -1 -1 -1 -1
4 4 4 3 3 2 2 2 2 1 0 -0 -0 -0 -1 -2 -2 -2 -3 -2 -2 -2 -2 -2 -2 -1 -2 -2 -2 -1 -1 -2 -2 -2 -1 -1 -1 -1 -2 -1 -1 -1 -1
2 2 2 3 2 2 1 1 1 0 -1 -1 -1 -2 -2 -2 -2 -2 -2 -2 -2 -2 -2 -2 -2 -2 -2 -2 -1 -1 -1 -1 -2 -2 -1 -1 -1 -2 -1 -1 -2 -2 -2
2 1 1 1 1 1 1 0 0 0 -0 -1 -2 -2 -2 -3 -3 -3 -3 -3 -3 -3 -2 -1 -1 -1 -2 -1 -1 -1 -1 -1 -1 -1 -1 -2 -1 -1 -1 -1 -2 -2 -3
1 1 1 0 0 1 0 0 -0 -0 -1 -1 -2 -2 -2 -3 -3 -3 -4 -3 -2 -2 -2 -1 -1 -1 -1 -1 -1 -1 -1 -1 -1 -1 -1 -1 -1 -1 -1 -2 -2 -3 -3
-1 0 0 0 0 0 0 -0 -0 -1 -1 -1 -2 -1 -2 -3 -3 -3 -3 -2 -2 -2 -1 -1 -1 -1 -1 -1 -1 -1 -1 -1 -1 -1 -1 -1 -1 -2 -2 -2 -2 -3 -3
-2 -1 -0 -0 -0 -0 -0 -0 -1 -1 -1 -1 -1 -1 -2 -2 -3 -3 -2 -2 -1 -1 -1 -1 -1 -1 -1 -1 -1 -1 -1 -1 -1 -1 -1 -1 -2 -2 -2 -2 -3 -3 -3
-1 -1 -1 -1 -1 -1 -1 -1 -1 -1 -1 -1 -1 -1 -2 -2 -2 -2 -2 -2 -1 -1 -1 -1 -1 -1 -1 -1 -1 -1 -1 -1 -1 -1 -1 -1 -1 -2 -2 -2 -3 -3 -3
-2 -2 -2 -1 -1 -1 -1 -1 -1 -1 -1 -1 -1 -1 -1 -2 -2 -2 -2 -2 -2 -1 -1 -2 -2 -1 -1 -1 -1 -1 -1 -1 -1 -1 -1 -2 -2 -2 -2 -2 -3 -3 -3
-2 -2 -2 -2 -2 -2 -2 -2 -2 -2 -2 -2 -2 -2 -2 -2 -2 -2 -2 -2 -2 -2 -2 -2 -2 -1 -1 -1 -1 -1 -1 -1 -1 -1 -2 -2 -2 -3 -2 -3 -3 -3 -4
-3 -2 -2 -2 -2 -2 -3 -4 -4 -4 -4 -4 -3 -3 -3 -3 -3 -3 -2 -2 -2 -2 -2 -2 -2 -2 -2 -2 -1 -1 -1 -2 -2 -2 -2 -3 -3 -3 -3 -3 -3 -4 -5
-4 -4 -3 -3 -3 -3 -3 -3 -3 -4 -6 -6 -5 -5 -5 -4 -4 -4 -4 -3 -3 -3 -3 -3 -2 -2 -2 -2 -2 -2 -2 -2 -2 -3 -3 -3 -3 -3 -4 -4 -5 -5 -5
Height
1507 1510 1512 1515 1518 1520 1521 1523 1524 1526 1528 1528 1529 1530 1530 1530 1529 1528 1528 1527 1526 1525 1525 1527 1529 1530 1530 1531 1532 1534 1534 1534 1537 1537 1538 1537 1538 1536 1537 1534 1536 1537 1540
1504 1507 1510 1513 1514 1515 1517 1520 1520 1523 1524 1524 1524 1524 1525 1524 1523 1522 1522 1521 1520 1520 1520 1522 1524 1525 1525 1525 1526 1528 1528 1529 1530 1531 1531 1532 1533 1533 1533 1533 1533 1534 1536
1502 1504 1506 1508 1510 1510 1513 1515 1515 1517 1519 1519 1519 1519 1520 1519 1517 1516 1516 1516 1515 1515 1516 1518 1520 1520 1520 1520 1520 1522 1523 1524 1524 1525 1524 1527 1528 1528 1528 1530 1531 1530 1532
1499 1501 1504 1506 1508 1507 1509 1511 1514 1515 1515 1517 1515 1514 1516 1514 1512 1512 1510 1511 1511 1511 1512 1513 1514 1514 1515 1516 1515 1515 1517 1518 1519 1519 1520 1522 1524 1525 1525 1526 1528 1528 1527
1495 1498 1501 1504 1505 1505 1506 1508 1510 1512 1513 1513 1511 1510 1511 1511 1507 1508 1506 1504 1506 1506 1507 1507 1508 1509 1510 1511 1511 1511 1510 1513 1514 1515 1516 1516 1519 1521 1522 1524 1525 1525 1526
1494 1496 1499 1501 1502 1503 1505 1507 1508 1508 1508 1508 1507 1508 1507 1505 1504 1503 1501 1500 1501 1501 1502 1501 1502 1503 1505 1505 1507 1507 1508 1508 1507 1512 1512 1514 1514 1517 1519 1520 1522 1522 1522
1492 1495 1497 1499 1500 1501 1503 1504 1504 1505 1505 1504 1503 1503 1501 1500 1499 1498 1497 1494 1496 1496 1497 1495 1498 1498 1498 1500 1500 1502 1503 1504 1506 1507 1509 1511 1511 1514 1514 1517 1519 1519 1519
1491 1493 1494 1496 1498 1499 1500 1500 1501 1501 1501 1500 1499 1498 1497 1495 1493 1492 1490 1490 1490 1491 1491 1492 1493 1494 1494 1497 1497 1498 1502 1503 1503 1505 1505 1507 1509 1511 1511 1513 1515 1516 1516
1488 1490 1492 1494 1495 1496 1497 1498 1498 1497 1496 1495 1494 1493 1492 1490 1488 1486 1485 1485 1487 1487 1488 1489 1490 1491 1493 1493 1494 1497 1499 1501 1500 1502 1503 1502 1504 1508 1509 1510 1511 1513 1513
1486 1488 1489 1491 1492 1492 1493 1494 1494 1493 1492 1491 1489 1488 1486 1485 1484 1482 1482 1483 1483 1483 1485 1487 1487 1489 1491 1491 1492 1493 1497 1498 1498 1499 1501 1499 1501 1504 1507 1507 1508 1510 1512
1484 1485 1486 1487 1488 1489 1488 1489 1490 1488 1487 1486 1485 1483 1482 1482 1481 1480 1479 1480 1481 1482 1483 1483 1486 1487 1488 1489 1490 1491 1493 1494 1496 1497 1497 1497 1499 1502 1504 1504 1506 1508 1509
1481 1482 1483 1484 1484 1485 1485 1485 1485 1484 1483 1481 1480 1479 1478 1478 1478 1478 1478 1478 1479 1479 1481 1482 1484 1485 1486 1487 1487 1488 1489 1491 1493 1494 1495 1496 1498 1500 1501 1502 1504 1505 1506
1478 1479 1480 1481 1481 1481 1481 1481 1480 1479 1478 1477 1476 1475 1475 1475 1474 1475 1475 1476 1476 1478 1479 1480 1481 1482 1483 1484 1484 1485 1486 1489 1490 1492 1493 1495 1496 1497 1498 1499 1501 1502 1502
1475 1476 1477 1477 1477 1477 1476 1476 1475 1475 1474 1473 1472 1472 1471 1471 1471 1471 1471 1473 1474 1475 1476 1477 1478 1479 1479 1480 1481 1482 1484 1486 1488 1490 1491 1492 1493 1494 1495 1496 1498 1498 1499
1471 1472 1472 1472 1472 1472 1471 1471 1470 1470 1470 1468 1468 1468 1467 1466 1467 1468 1468 1469 1471 1472 1473 1473 1474 1475 1476 1477 1478 1479 1481 1483 1485 1487 1488 1489 1489 1491 1492 1493 1493 1494 1495
1468 1468 1468 1468 1468 1468 1467 1466 1466 1465 1465 1464 1463 1462 1462 1462 1462 1464 1465 1466 1468 1469 1469 1469 1470 1471 1472 1474 1475 1477 1478 1480 1482 1483 1484 1485 1486 1487 1488 1488 1489 1490 1491
1464 1464 1464 1463 1464 1463 1462 1461 1461 1460 1459 1458 1458 1457 1457 1457 1458 1460 1461 1463 1464 1465 1463 1465 1467 1468 1469 1471 1472 1473 1475 1477 1478 1478 1479 1481 1482 1483 1484 1485 1486 1486 1487
1459 1459 1459 1459 1459 1458 1458 1457 1456 1455 1454 1453 1453 1452 1452 1452 1453 1455 1457 1459 1459 1458 1458 1461 1463 1464 1466 1467 1468 1469 1470 1471 1472 1473 1474 1476 1477 1478 1479 1480 1481 1482 1483
1454 1454 1454 1453 1453 1453 1453 1453 1451 1450 1449 1448 1447 1447 1447 1448 1448 1450 1452 1452 1453 1453 1455 1456 1458 1459 1461 1462 1463 1464 1465 1466 1467 1468 1469 1470 1471 1472 1473 1475 1476 1477 1477
1450 1449 1449 1448 1448 1448 1448 1447 1447 1446 1445 1443 1442 1442 1443 1443 1443 1443 1445 1446 1446 1448 1449 1450 1451 1453 1454 1456 1457 1458 1458 1459 1460 1461 1462 1464 1465 1466 1467 1469 1470 1471 1472
1445 1445 1444 1444 1443 1444 1443 1442 1442 1441 1441 1439 1438 1438 1438 1438 1438 1438 1439 1440 1441 1441 1443 1444 1446 1447 1448 1449 1450 1451 1452 1452 1453 1454 1455 1457 1458 1459 1460 1462 1463 1465 1466
1442 1441 1440 1439 1439 1438 1438 1437 1437 1436 1435 1434 1434 1433 1433 1432 1432 1432 1432 1433 1434 1435 1435 1437 1437 1439 1440 1441 1442 1443 1444 1445 1446 1447 1448 1449 1451 1452 1453 1454 1456 1457 1459
1438 1437 1436 1435 1434 1433 1432 1432 1431 1431 1430 1430 1429 1428 1428 1427 1426 1425 1425 1425 1426 1426 1427 1428 1429 1429 1431 1432 1433 1434 1435 1436 1438 1440 1440 1442 1443 1444 1446 1447 1448 1449 1451
1435 1433 1432 1431 1429 1428 1427 1426 1426 1425 1424 1423 1422 1421 1421 1420 1419 1419 1418 1418 1417 1417 1417 1417 1418 1419 1420 1421 1423 1424 1426 1427 1429 1430 1432 1432 1434 1436 1438 1438 1440 1441 1443
1432 1430 1428 1426 1424 1423 1422 1421 1419 1418 1417 1416 1415 1414 1413 1412 1411 1411 1410 1409 1409 1408 1407 1407 1407 1408 1409 1410 1411 1413 1416 1418 1419 1420 1421 1422 1424 1426 1428 1430 1432 1433 1434
1428 1426 1424 1423 1420 1418 1417 1415 1413 1412 1411 1409 1408 1407 1405 1404 1403 1402 1401 1400 1399 1399 1398 1397 1397 1397 1398 1398 1399 1400 1402 1405 1407 1409 1411 1412 1413 1415 1417 1419 1421 1424 1425
Wind_Speed
23 22 23 22 20 18 16 17 19 22 24 23 23 23 22 22 22 22 23 22 22 21 21 22 23 25 25 21 19 24 21 22 24 23 23 21 19 17 19 14 12 11 11
23 21 21 18 13 12 13 16 16 16 17 17 18 18 19 19 20 20 20 21 20 19 17 18 19 24 20 21 18 21 21 21 23 24 22 20 19 17 15 12 11 11 10
24 23 21 19 18 19 20 19 19 19 19 18 18 17 18 18 19 20 20 20 19 18 17 16 19 20 21 20 22 21 21 23 22 21 20 20 18 16 14 13 11 9 9
25 24 21 20 19 18 18 18 18 16 15 14 14 15 17 17 17 18 19 20 19 17 17 17 20 20 20 21 19 21 22 21 20 19 18 17 17 16 15 13 12 10 10
19 19 19 18 16 15 15 14 12 12 12 12 12 13 14 15 16 18 18 18 20 19 19 20 21 22 22 24 24 23 20 20 19 18 18 17 16 16 15 13 13 11 10
17 17 16 14 13 12 12 12 12 12 11 11 11 12 14 15 17 19 19 19 19 19 20 20 21 22 23 23 23 21 19 18 17 17 15 14 14 14 14 13 14 12 9
15 14 13 12 12 12 12 12 11 11 12 13 14 15 15 17 20 20 21 19 19 19 19 18 19 19 20 19 19 19 19 17 16 14 13 13 14 13 12 13 13 12 10
13 13 13 12 11 11 11 12 13 13 14 14 16 17 17 17 18 20 20 19 18 19 18 18 18 16 15 15 14 15 16 16 16 15 14 12 11 12 11 11 12 12 9
13 13 12 11 12 12 11 12 13 14 15 17 17 18 19 17 16 18 16 15 15 15 15 15 14 14 16 15 14 14 15 16 15 14 14 13 11 12 11 10 10 11 9
12 11 11 12 12 11 12 13 14 15 16 17 18 18 17 16 14 16 13 11 12 13 14 14 15 15 15 14 14 14 15 14 13 12 14 10 11 11 11 9 8 8 7
12 12 13 13 13 13 13 15 16 17 17 17 17 15 15 14 13 13 12 11 12 13 14 14 14 13 13 13 14 14 13 13 13 12 11 10 10 10 9 9 9 8 8
12 13 14 13 13 14 15 16 17 18 18 17 15 15 14 14 12 10 11 11 12 12 12 12 13 12 13 14 13 13 14 13 14 13 12 12 11 10 9 9 9 8 9
13 13 14 14 13 14 16 17 18 17 16 15 15 15 14 15 15 12 13 14 14 12 12 13 13 13 12 13 13 12 13 13 14 14 13 12 10 10 10 9 9 9 10
11 12 13 13 13 14 15 17 17 16 16 15 15 15 15 17 16 16 13 13 14 14 14 14 14 14 13 13 13 14 14 14 13 13 13 12 11 11 10 10 9 9 10
10 11 13 11 12 13 14 15 16 16 16 16 15 16 17 18 16 14 14 13 13 13 13 14 15 15 15 14 14 15 14 15 16 15 14 11 11 11 10 10 9 9 10
11 12 13 13 13 14 14 14 15 16 16 16 16 18 17 17 16 14 13 13 13 13 15 15 15 15 15 15 15 15 15 16 16 15 14 12 12 11 11 11 10 11 11
13 14 16 15 15 14 14 14 14 15 17 18 17 17 16 15 17 16 15 14 14 16 19 17 16 16 15 16 16 16 16 15 15 16 15 14 13 13 13 12 12 11 10
12 14 16 16 15 15 16 15 15 16 17 17 17 17 16 16 17 16 16 16 18 21 22 17 17 17 17 17 17 17 16 17 18 17 17 16 15 15 15 14 13 12 12
14 14 15 16 16 16 17 17 16 16 17 16 16 16 16 16 18 18 19 22 24 24 23 21 18 18 18 17 17 18 18 18 18 19 18 18 17 18 17 16 15 15 15
14 14 14 15 14 16 17 17 17 16 16 16 16 15 14 15 19 22 25 27 28 25 24 23 21 19 19 19 19 19 20 20 21 20 19 19 19 19 19 18 18 18 18
11 13 13 13 14 14 16 17 16 16 16 16 15 14 14 16 18 21 24 27 28 28 26 24 22 21 20 21 21 22 23 23 23 21 21 20 20 21 20 21 20 20 20
11 12 11 12 13 14 15 16 16 17 17 17 16 16 14 17 19 21 24 26 28 28 28 27 26 24 23 23 23 24 25 25 24 24 23 22 22 22 22 23 23 23 21
12 12 11 11 13 14 15 15 16 16 17 18 18 19 18 18 20 21 22 24 26 29 30 30 29 28 27 27 26 27 27 27 24 23 24 24 24 24 23 25 26 25 23
13 13 13 13 13 14 15 15 16 18 18 19 20 20 20 20 20 21 22 23 25 26 27 28 31 32 32 31 30 29 29 28 27 27 26 27 27 25 26 28 27 26 23
13 13 13 13 14 14 15 16 17 17 18 18 19 20 20 21 22 23 23 24 24 26 26 27 29 31 32 35 34 33 31 29 30 29 29 29 30 29 29 29 26 28 25
13 13 14 14 14 14 15 16 16 17 18 19 19 20 20 21 22 23 24 25 26 26 26 27 27 27 29 31 33 34 35 33 33 31 31 33 34 34 34 33 30 31 28
Wind_Direction
209 214 222 223 228 226 232 244 251 254 251 250 253 256 259 264 265 267 267 268 270 267 261 254 253 256 245 248 252 253 250 253 260 259 258 255 260 258 272 273 249 242 242
205 201 195 203 211 227 250 256 263 255 252 255 257 260 263 263 264 268 271 272 271 268 259 257 250 249 263 246 254 237 257 253 257 258 251 247 248 252 257 258 238 235 244
210 206 205 204 209 233 235 241 246 249 254 257 261 267 271 272 274 273 271 271 269 263 261 251 254 251 251 258 248 249 261 267 260 252 242 241 241 244 241 241 241 231 237
217 219 222 221 221 228 235 241 243 249 256 264 271 275 276 276 275 275 273 270 267 261 250 248 251 252 255 249 246 254 268 262 252 247 242 238 234 232 229 235 226 224 228
210 210 212 216 220 226 234 239 245 251 258 267 277 284 285 287 287 279 272 273 268 260 252 252 252 253 256 260 258 257 253 250 245 242 236 230 225 225 229 227 226 226 235
201 206 212 219 226 229 229 232 238 247 258 271 280 283 291 295 289 281 275 266 262 260 257 253 252 252 253 254 256 253 248 240 236 235 231 229 223 223 227 228 230 229 237
205 210 216 220 222 225 230 239 249 259 270 277 282 285 291 297 296 284 272 265 260 255 253 252 250 251 254 254 246 242 234 230 229 229 235 231 230 233 225 230 235 238 240
208 210 214 219 227 237 245 253 259 266 275 280 282 283 288 293 302 292 270 262 256 253 253 250 248 243 243 236 231 230 230 231 234 241 237 236 235 233 232 227 231 234 229
212 215 221 229 236 244 256 265 269 275 281 284 286 287 286 284 301 304 276 259 251 251 254 249 244 233 230 228 225 226 230 232 231 232 231 227 231 235 232 227 225 226 224
223 227 233 238 245 254 265 270 274 280 283 285 286 287 287 288 297 302 271 247 238 237 237 235 233 224 228 225 225 227 233 234 234 232 230 228 229 230 227 218 215 219 219
231 234 240 245 254 263 272 277 280 283 285 286 286 285 284 285 286 291 264 247 238 234 231 232 232 228 233 234 232 231 231 231 229 223 219 217 215 216 208 207 211 220 232
240 246 248 250 257 266 273 278 280 283 285 286 286 286 283 281 280 275 253 248 239 232 232 233 237 235 233 236 236 233 229 225 221 218 216 212 210 210 209 212 219 229 245
249 252 253 253 260 268 276 279 278 278 279 281 285 284 282 279 276 268 246 240 245 238 238 237 238 243 239 234 237 233 229 220 219 217 214 212 207 207 214 222 234 240 249
247 246 247 252 263 271 279 279 276 275 275 278 281 285 280 272 269 266 250 240 241 246 247 247 245 243 241 235 230 227 226 222 221 219 219 214 211 214 224 234 244 254 263
241 243 249 258 271 280 285 284 277 272 273 278 281 280 276 270 272 265 239 242 251 252 245 244 241 240 238 234 231 227 223 222 220 220 224 222 221 227 235 244 255 266 270
254 258 267 270 276 283 291 293 289 282 275 276 278 277 273 265 257 251 235 236 240 241 244 245 244 241 238 237 233 231 229 228 226 227 230 228 228 233 241 253 261 270 276
269 267 268 271 276 281 285 291 298 297 288 278 274 277 275 266 253 246 233 237 237 242 247 242 243 243 244 242 239 236 234 232 230 233 236 235 233 235 243 253 262 269 277
272 266 266 270 274 280 285 288 292 301 301 289 278 279 272 268 259 245 227 235 237 239 248 249 248 248 247 245 241 239 236 233 234 235 236 238 241 243 247 254 261 267 273
278 270 267 267 269 276 281 283 286 293 297 295 284 270 269 265 259 247 231 237 245 248 254 259 257 253 250 248 245 242 239 238 240 240 239 239 241 246 249 252 256 260 266
277 277 274 270 270 276 280 283 285 289 295 298 294 286 274 262 249 242 236 241 249 253 256 260 263 261 256 253 249 245 244 244 244 244 244 245 246 249 252 252 253 255 261
295 278 279 274 277 279 278 281 283 285 290 295 299 298 283 270 264 257 251 252 258 261 261 264 265 263 259 255 252 249 249 248 249 251 250 248 248 250 254 255 254 255 259
297 294 286 278 279 279 280 280 281 284 287 289 293 294 291 279 271 264 261 258 261 263 265 266 265 263 261 258 256 254 253 253 252 252 252 252 251 252 253 255 255 253 256
308 300 294 287 283 282 284 286 287 287 288 288 289 288 287 283 282 279 273 270 267 266 266 264 262 261 260 259 257 256 255 256 258 258 256 255 253 252 256 260 256 253 256
317 307 300 294 290 286 287 287 287 288 289 289 288 288 286 285 282 281 280 279 275 271 270 268 264 261 260 259 259 258 257 256 255 255 254 252 251 251 259 257 255 252 255
328 325 322 315 305 296 291 289 290 290 290 288 287 285 284 284 283 281 279 279 278 275 273 270 267 265 262 260 259 258 256 255 255 254 252 252 253 251 254 257 257 254 254
327 324 322 319 315 309 306 302 298 293 290 291 294 293 292 288 285 283 281 279 278 277 276 275 274 271 267 263 260 259 257 254 251 250 252 251 249 248 247 244 251 250 255